星链-34715 (STARLINK-34715)

导读

STARLINK-34715是美国太空探索技术公司SpaceX星链(Starlink)星座的成员卫星,于2025年7月26日发射。星链项目旨在构建低轨卫星互联网星座,为全球偏远、网络不发达地区提供高速宽带互联网服务。STARLINK-34715入轨后,进一步扩充了星链星座的在轨规模,助力提升星座的全球网络覆盖能力与服务稳定性,推动低轨卫星互联网的部署进程。

基本信息
目录编号:
64931
目录名称:
STARLINK-34715
国际标识:
2025-157AD
轨道中心:
EARTH
卫星名称:
星链-34715
卫星全名:
星链-34715 (STARLINK-34715)
卫星状态:
在轨 (已飞行405 天)
发射日期:
2025-07-26 UTC
国别 :
美国 (US)
星等 :
--
轨道信息
数据来源 国际轨道数据 AOE轨道数据
星历时间 2026-09-03T16:52:23+0800
23小时前
查看轨道信息
2026-09-03T23:00:00+0800
17小时前
查看轨道信息
半长轴 6840.831km 6840.87km
偏心率 0.0000944 0.0001551
轨道倾角 53.156° 53.154°
近地点辐角 122.576° 77.160°
升交点赤经 237.789° 236.597°
平近点角 237.534° 253.910°
近地点 462.048km 461.671km
远地点 463.34km 463.795km
周期 93.848分钟 93.848分钟
每日圈数 15.344034 15.343902
详细信息
固有亮度:
5
最大亮度:
2.5
卫星平台:
Starlink V1.0
覆盖范围:
全球
运营商:
太空探索技术公司
运营商所在国:
美国
制造商(研发单位):
太空探索技术公司
制造商所在国:
美国
使用方式:
暂无
卫星简介
Starlink 计划是 SpaceX 推出的全球卫星互联网项目,通过发射低轨道卫星,为全球尤其是偏远地区提供高速、低延迟的互联网服务。自 2019 年起,Starlink 已部署数千颗卫星,旨在缩小全球数字鸿沟,推动互联网普及。该项目还为军事、航空等行业提供通信支持,带来广泛经济效益。
2D轨道图
3D轨道图
轨道高度分析图
轨道倾角分析图
轨道综合分析图
查看轨道综合分析图
交会数据列表
事件ID 空间交会对象 最接近时刻(TCA) 交会距离 交会风险概率(CRP) 交会风险指数(CRI) 操作
CDM_260905-113705-276306-493121
2026-09-05T
11:37:03+0000
1.203 km
极远距离
1.423943E-5 中风险 0.58
CDM_260904-194606-441906-493121
2026-09-04T
19:46:38+0000
1.887 km
极远距离
2.788079E-6 低风险 0.44
CDM_260906-105605-300106-493121
2026-09-06T
10:56:55+0000
2.262 km
极远距离
1.777364E-6 低风险 0.4
CDM_260906-073805-478506-493121
2026-09-06T
07:38:08+0000
1.596 km
极远距离
1.703596E-6 低风险 0.4
CDM_260904-181206-441906-493121
2026-09-04T
18:12:49+0000
2.723 km
极远距离
1.293784E-6 低风险 0.37
CDM_260906-082505-478506-493121
2026-09-06T
08:25:02+0000
1.938 km
极远距离
1.027795E-6 低风险 0.35
CDM_260906-095805-478506-493121
2026-09-06T
09:58:49+0000
2.091 km
极远距离
8.68877E-7 极低风险 0.34
CDM_260906-060405-478506-493121
2026-09-06T
06:04:20+0000
2.199 km
极远距离
7.862976E-7 极低风险 0.33
CDM_260906-012305-419806-493121
2026-09-06T
01:23:39+0000
2.817 km
极远距离
6.248775E-7 极低风险 0.31